Location: LDNL
(36.4545°S, 141.6685°E)
Time: 11:16:13
(UTC+10:00)

Explorer 7 - Pass Details

Date: 19 August 2022
Orbit: 482 x 668 km, 50.3° (Epoch: 26 September)

Event Time Altitude Azimuth Distance (km) Brightness Sun altitude
Rises 21:18:41 0° 227° (SW) 2,985 11.3 -39.7°
Enters shadow 21:20:48 - 219° (SW) 2,226 10.4 -40.2°
Reaches altitude 10° 21:21:20 10° 216° (SW) 2,045 - -40.3°
Maximum altitude 21:25:29 30° 154° (SSE) 1,121 - -41.1°
Drops below altitude 10° 21:29:26 10° 92° (E) 1,934 - -41.8°
Sets 21:31:52 0° 81° (E) 2,795 - -42.3°
